Simultaneous Nadir Overpasses (SNOs) Predictions

Prediction of SNOs near US between NOAA-19 and NPP Satellite Orbit:

Table of predicted SNOs near US for the next 10.0 days since TLE Epoch: 5/5/2013
Index Date (NOAA-19) Time (NOAA-19) NOAA-19 Lat,Lon Date (NPP) Time (NPP) NPP Lat,Lon Distance(km) Time Diff (sec)
1 05/08/2013 08:15:14 41.82, -91.40 05/08/2013 08:12:52 42.32, -94.20 237.91 142
2 05/08/2013 09:57:54 39.77,-117.62 05/08/2013 09:54:57 40.28,-120.28 232.90 177
3 05/08/2013 18:03:03 49.97, -77.05 05/08/2013 17:57:24 49.69, -78.74 125.34 339
4 05/08/2013 19:45:08 49.99,-102.58 05/08/2013 19:38:54 49.69,-104.11 115.33 374
5 05/08/2013 21:24:58 42.29,-124.98 05/08/2013 21:18:33 43.29,-126.92 193.36 385
